College Park, MD

10:49 PM EST on December 12, 2017 (GMT -0500)
College Park

Weather History for KCGS - November, 2012

Change the Weather History Date:

Saturday, November 10, 2012

  Actual Average Record
Temperature  
Mean Temperature 50 °F -  
Max Temperature 66 °F 61 °F 77 °F (1986)
Min Temperature 33 °F 40 °F 24 °F (1954)
Degree Days  
Heating Degree Days 16    
Moisture  
Dew Point 36 °F    
Average Humidity 70    
Maximum Humidity 95    
Minimum Humidity 29    
Precipitation  
Precipitation 0.00 in - - ()
Sea Level Pressure  
Sea Level Pressure 30.32 in    
Wind  
Wind Speed 0 mph (ESE)    
Max Wind Speed 5 mph    
Max Gust Speed -    
Visibility 8 miles    
Events      
Averages and records for this station are not official NWS values.
T = Trace of Precipitation, MM = Missing Value Source: NWS Daily Summary

Daily Weather History Graph

Daily Weather History Graph

Search for Another Location

Airport or City:

Trip Planner

Search our weather history database for the weather conditions in past years. The results will help you decide how hot, cold, wet, or windy it might be!

Date:

Astronomy

Nov. 10, 2012 Rise Set
Actual Time 6:45 AM EST 4:57 PM EST
Civil Twilight 6:17 AM EST 5:25 PM EST
Nautical Twilight 5:45 AM EST 5:57 PM EST
Astronomical Twilight 5:13 AM EST 6:28 PM EST
Moon 2:49 AM EST (11/10) 2:41 PM EST (11/10)
Length of Visible Light 11h 08m
Length of Day
10h 11m
Waning Crescent, 14% of the Moon is Illuminated
Nov 10
Waning Crescent
Nov 13
New
Nov 20
First Quarter
Nov 28
Full
Dec 6
Last Quarter

Hourly Weather History & Observations

Time (EST) Temp. Windchill Dew Point Humidity Pressure Visibility Wind Dir Wind Speed Gust Speed Precip Events Conditions
12:10 AM 38.5 °F - 36.0 °F 91% 30.25 in 10.0 mi Calm Calm - N/A   Clear
12:30 AM 37.4 °F - 34.7 °F 90% 30.24 in 7.0 mi Calm Calm - N/A   Clear
12:50 AM 37.0 °F - 34.3 °F 90% 30.24 in 7.0 mi Calm Calm - N/A   Clear
1:10 AM 36.9 °F - 34.7 °F 92% 30.25 in 7.0 mi Calm Calm - N/A   Clear
1:35 AM 36.5 °F - 34.7 °F 93% 30.25 in 5.0 mi Calm Calm - N/A   Clear
1:55 AM 35.8 °F - 33.8 °F 92% 30.26 in 7.0 mi Calm Calm - N/A   Clear
2:15 AM 36.1 °F - 34.2 °F 93% 30.26 in 5.0 mi Calm Calm - N/A   Clear
3:00 AM 35.2 °F - 33.4 °F 93% 30.27 in 5.0 mi Calm Calm - N/A   Clear
3:20 AM 34.9 °F - 33.3 °F 94% 30.27 in 5.0 mi Calm Calm - N/A   Clear
3:40 AM 34.7 °F - 32.9 °F 93% 30.27 in 4.0 mi Calm Calm - N/A   Clear
4:00 AM 34.7 °F - 32.9 °F 93% 30.27 in 5.0 mi Calm Calm - N/A   Clear
4:25 AM 34.2 °F - 32.7 °F 94% 30.27 in 5.0 mi Calm Calm - N/A   Clear
4:45 AM 34.3 °F - 32.9 °F 94% 30.28 in 5.0 mi Calm Calm - N/A   Clear
5:05 AM 34.0 °F - 32.7 °F 95% 30.28 in 5.0 mi Calm Calm - N/A   Clear
5:25 AM 34.0 °F - 32.5 °F 94% 30.29 in 5.0 mi Calm Calm - N/A   Clear
6:10 AM 33.8 °F - 32.2 °F 94% 30.30 in 5.0 mi Calm Calm - N/A   Clear
6:30 AM 33.8 °F - 32.0 °F 93% 30.32 in 5.0 mi Calm Calm - N/A   Clear
6:55 AM 33.8 °F - 32.2 °F 94% 30.33 in 5.0 mi Calm Calm - N/A   Clear
7:15 AM 33.8 °F - 32.2 °F 94% 30.33 in 5.0 mi Calm Calm - N/A   Clear
7:35 AM 34.9 °F - 33.3 °F 94% 30.33 in 5.0 mi Calm Calm - N/A   Clear
7:55 AM 35.8 °F - 34.0 °F 93% 30.34 in 7.0 mi Calm Calm - N/A   Clear
8:15 AM 39.6 °F 37.4 °F 36.1 °F 88% 30.34 in 7.0 mi North 3.5 mph - N/A   Clear
8:40 AM 45.0 °F 43.5 °F 37.0 °F 74% 30.35 in 10.0 mi NNE 3.5 mph - N/A   Clear
9:00 AM 46.2 °F - 36.3 °F 68% 30.34 in 10.0 mi Calm Calm - N/A   Scattered Clouds
9:20 AM 47.1 °F - 36.5 °F 67% 30.35 in 7.0 mi Calm Calm - N/A   Scattered Clouds
9:40 AM 48.4 °F - 37.0 °F 65% 30.35 in 10.0 mi Calm Calm - N/A   Scattered Clouds
10:00 AM 50.0 °F - 37.2 °F 62% 30.34 in 7.0 mi Calm Calm - N/A   Mostly Cloudy
10:25 AM 52.0 °F - 37.4 °F 58% 30.35 in 10.0 mi Calm Calm - N/A   Scattered Clouds
10:45 AM 54.9 °F - 37.4 °F 52% 30.35 in 10.0 mi Calm Calm - N/A   Scattered Clouds
11:05 AM 57.0 °F - 36.9 °F 47% 30.34 in 10.0 mi Calm Calm - N/A   Scattered Clouds
11:30 AM 59.2 °F - 32.5 °F 37% 30.33 in 10.0 mi SSE 3.5 mph - N/A   Scattered Clouds
11:50 AM 61.5 °F - 32.5 °F 34% 30.32 in 10.0 mi Calm Calm - N/A   Clear
12:10 PM 63.3 °F - 32.4 °F 31% 30.31 in 10.0 mi Calm Calm - N/A   Clear
12:30 PM 64.2 °F - 32.2 °F 30% 30.30 in 10.0 mi Calm Calm - N/A   Clear
12:55 PM 64.9 °F - 32.2 °F 29% 30.29 in 10.0 mi Calm Calm - N/A   Clear
1:15 PM 65.3 °F - 32.0 °F 29% 30.29 in 10.0 mi SE 3.5 mph - N/A   Clear
1:35 PM 65.7 °F - 33.4 °F 30% 30.28 in 10.0 mi Calm Calm - N/A   Clear
1:55 PM 66.2 °F - 33.6 °F 30% 30.28 in 10.0 mi Calm Calm - N/A   Clear
2:20 PM 66.2 °F - 34.2 °F 30% 30.28 in 10.0 mi Calm Calm - N/A   Clear
3:00 PM 65.8 °F - 34.7 °F 32% 30.28 in 10.0 mi Calm Calm - N/A   Clear
3:20 PM 65.7 °F - 33.8 °F 31% 30.28 in 10.0 mi SE 3.5 mph - N/A   Clear
4:05 PM 63.9 °F - 36.5 °F 36% 30.29 in 10.0 mi ESE 4.6 mph - N/A   Clear
4:45 PM 61.3 °F - 36.1 °F 39% 30.31 in 10.0 mi ESE 3.5 mph - N/A   Clear
5:10 PM 59.7 °F - 35.8 °F 41% 30.31 in 10.0 mi Calm Calm - N/A   Clear
5:30 PM 58.1 °F - 36.1 °F 44% 30.32 in 10.0 mi Calm Calm - N/A   Clear
5:50 PM 57.0 °F - 35.8 °F 45% 30.33 in 10.0 mi Calm Calm - N/A   Clear
6:10 PM 54.9 °F - 35.6 °F 48% 30.33 in 10.0 mi Calm Calm - N/A   Clear
6:35 PM 51.8 °F - 38.3 °F 60% 30.34 in 10.0 mi Calm Calm - N/A   Clear
6:55 PM 50.5 °F - 39.4 °F 66% 30.34 in 10.0 mi Calm Calm - N/A   Clear
7:15 PM 50.2 °F - 38.5 °F 64% 30.34 in 10.0 mi Calm Calm - N/A   Clear
7:35 PM 48.4 °F - 40.6 °F 75% 30.34 in 10.0 mi Calm Calm - N/A   Clear
8:00 PM 47.7 °F - 40.8 °F 77% 30.35 in 10.0 mi Calm Calm - N/A   Clear
8:20 PM 46.6 °F - 39.9 °F 78% 30.35 in 10.0 mi Calm Calm - N/A   Clear
8:40 PM 45.7 °F - 39.9 °F 80% 30.36 in 10.0 mi Calm Calm - N/A   Clear
9:00 PM 45.3 °F - 40.8 °F 84% 30.36 in 10.0 mi Calm Calm - N/A   Clear
9:25 PM 44.6 °F - 38.5 °F 79% 30.37 in 10.0 mi Calm Calm - N/A   Clear
9:45 PM 43.7 °F - 38.7 °F 82% 30.37 in 10.0 mi Calm Calm - N/A   Clear
10:05 PM 43.2 °F - 38.8 °F 85% 30.38 in 10.0 mi Calm Calm - N/A   Clear
10:25 PM 43.0 °F - 39.0 °F 86% 30.38 in 10.0 mi Calm Calm - N/A   Clear
10:50 PM 42.1 °F - 38.1 °F 86% 30.38 in 10.0 mi Calm Calm - N/A   Clear
11:10 PM 42.1 °F - 37.8 °F 85% 30.38 in 10.0 mi Calm Calm - N/A   Clear
11:30 PM 42.1 °F - 37.9 °F 85% 30.38 in 10.0 mi Calm Calm - N/A   Clear
11:50 PM 41.2 °F - 37.9 °F 88% 30.38 in 10.0 mi Calm Calm - N/A   Clear